Track DUMMY SAT 2/BREEZE-M now! DUMMY SAT 2/BREEZE-M is classified as:
1 40355U 14085A 26246.53848081 -.00000109 00000-0 00000+0 0 9992 2 40355 10.5167 59.7194 0369757 356.0658 3.7493 0.94060275 39959